| time (UTC) | temp C | wind direction | speed KPH | gust KPH | rain 1hr cm | rain 24hr cm | rain mn cm | humidity % | barometer mb |
| 20260510051530 | 24 | 110 | 4.8 | 16.1 | 0.00 | 1.24 | 0.00 | 88 | 1013.3 |
| 20260510050029 | 25 | 131 | 6.4 | 20.9 | 0.00 | 1.24 | 0.00 | 88 | 1013.3 |
| 20260510044534 | 25 | 113 | 4.8 | 12.9 | 0.00 | 1.24 | 1.24 | 88 | 1013.4 |
| 20260510043030 | 24 | 99 | 3.2 | 11.3 | 0.00 | 1.24 | 1.24 | 87 | 1013.6 |
| 20260510041531 | 24 | 84 | 3.2 | 11.3 | 0.00 | 1.24 | 1.24 | 87 | 1013.9 |
| 20260510040030 | 24 | 98 | 3.2 | 11.3 | 0.00 | 1.24 | 1.24 | 87 | 1013.8 |
| 20260510034530 | 24 | 78 | 3.2 | 11.3 | 0.00 | 1.24 | 1.24 | 88 | 1013.5 |
| 20260510033028 | 24 | 63 | 3.2 | 11.3 | 0.00 | 1.24 | 1.24 | 88 | 1013.9 |
| 20260510031551 | 25 | 111 | 4.8 | 16.1 | 0.00 | 1.24 | 1.24 | 88 | 1013.7 |
| 20260510030030 | 25 | 116 | 3.2 | 19.3 | 0.00 | 1.24 | 1.24 | 87 | 1013.7 |
| 20260510024535 | 25 | 141 | 6.4 | 22.5 | 0.00 | 1.24 | 1.24 | 87 | 1013.4 |
| 20260510023042 | 25 | 0 | 6.4 | 19.3 | 0.00 | 1.24 | 1.24 | 83 | 1012.9 |
| 20260510021530 | 23 | 85 | 1.6 | 12.9 | 0.00 | 1.24 | 1.24 | 83 | 1012.6 |
| 20260510020028 | 23 | 0 | 0.0 | 16.1 | 0.00 | 1.24 | 1.24 | 86 | 1012.2 |
| 20260510014532 | 23 | 154 | 0.0 | 4.8 | 0.00 | 1.24 | 1.24 | 91 | 1011.6 |
| 20260510013027 | 23 | 0 | 0.0 | 1.6 | 0.03 | 1.24 | 1.24 | 91 | 1011.4 |
| 20260510011530 | 23 | 0 | 0.0 | 3.2 | 0.23 | 1.24 | 1.24 | 90 | 1010.7 |
| 20260510010032 | 23 | 0 | 0.0 | 1.6 | 0.66 | 1.24 | 1.24 | 90 | 1010.5 |
| 20260510004532 | 23 | 0 | 0.0 | 4.8 | 0.86 | 1.24 | 1.24 | 88 | 1010.1 |
| 20260510003028 | 23 | 59 | 0.0 | 8.0 | 0.91 | 1.19 | 1.19 | 88 | 1010.3 |
| 20260510001530 | 24 | 0 | 0.0 | 4.8 | 1.02 | 1.02 | 1.02 | 87 | 1010.6 |
| 20260510000029 | 25 | 0 | 1.6 | 14.5 | 0.56 | 0.56 | 0.56 | 84 | 1010.2 |
| 20260509234535 | 25 | 38 | 1.6 | 6.4 | 0.38 | 0.38 | 0.38 | 83 | 1010.3 |
| 20260509233031 | 28 | 242 | 4.8 | 17.7 | 0.25 | 0.25 | 0.25 | 75 | 1010.0 |
| 20260509231530 | 31 | 112 | 1.6 | 9.7 | 0.00 | 0.00 | 0.00 | 61 | 1009.6 |
| 20260509230030 | 32 | 84 | 0.0 | 9.7 | 0.00 | 0.00 | 0.00 | 60 | 1009.5 |
| 20260509224528 | 32 | 0 | 0.0 | 6.4 | 0.00 | 0.00 | 0.00 | 58 | 1009.3 |
| 20260509223029 | 32 | 0 | 0.0 | 4.8 | 0.00 | 0.00 | 0.00 | 57 | 1009.3 |
| 20260509221532 | 33 | 262 | 0.0 | 3.2 | 0.00 | 0.00 | 0.00 | 55 | 1009.3 |
| 20260509220030 | 33 | 0 | 0.0 | 6.4 | 0.00 | 0.00 | 0.00 | 55 | 1009.3 |
| 20260509214530 | 33 | 348 | 3.2 | 8.0 | 0.00 | 0.00 | 0.00 | 57 | 1009.3 |
| 20260509213028 | 32 | 61 | 1.6 | 6.4 | 0.00 | 0.00 | 0.00 | 57 | 1009.2 |
| 20260509211549 | 32 | 0 | 1.6 | 6.4 | 0.00 | 0.00 | 0.00 | 58 | 1009.2 |
| 20260509210028 | 33 | 273 | 1.6 | 8.0 | 0.00 | 0.00 | 0.00 | 57 | 1009.4 |
| 20260509204528 | 33 | 82 | 0.0 | 6.4 | 0.00 | 0.00 | 0.00 | 57 | 1009.6 |
| 20260509203039 | 33 | 282 | 3.2 | 14.5 | 0.00 | 0.00 | 0.00 | 57 | 1009.6 |
| 20260509201528 | 32 | 290 | 1.6 | 11.3 | 0.00 | 0.00 | 0.00 | 57 | 1009.6 |
| 20260509200031 | 33 | 317 | 3.2 | 9.7 | 0.00 | 0.00 | 0.00 | 58 | 1009.8 |
| 20260509194530 | 32 | 302 | 1.6 | 12.9 | 0.00 | 0.00 | 0.00 | 58 | 1010.0 |
| 20260509193033 | 32 | 290 | 1.6 | 9.7 | 0.00 | 0.00 | 0.00 | 57 | 1010.0 |
| 20260509191529 | 32 | 222 | 1.6 | 8.0 | 0.00 | 0.00 | 0.00 | 59 | 1010.2 |
| 20260509190036 | 31 | 298 | 1.6 | 11.3 | 0.00 | 0.00 | 0.00 | 61 | 1010.2 |
| 20260509184527 | 31 | 169 | 1.6 | 11.3 | 0.00 | 0.10 | 0.00 | 65 | 1010.3 |
| 20260509183030 | 31 | 0 | 3.2 | 11.3 | 0.00 | 0.10 | 0.00 | 67 | 1010.6 |
| 20260509181529 | 30 | 282 | 1.6 | 9.7 | 0.00 | 0.10 | 0.00 | 66 | 1010.9 |
| 20260509180031 | 30 | 274 | 3.2 | 11.3 | 0.00 | 0.10 | 0.00 | 71 | 1011.5 |
| 20260509174531 | 29 | 167 | 1.6 | 9.7 | 0.00 | 0.13 | 0.00 | 74 | 1011.7 |
| 20260509173030 | 28 | 165 | 3.2 | 14.5 | 0.00 | 0.13 | 0.00 | 78 | 1011.7 |
| 20260509171528 | 27 | 0 | 1.6 | 9.7 | 0.00 | 0.13 | 0.00 | 79 | 1012.2 |
| 20260509170031 | 27 | 175 | 1.6 | 8.0 | 0.00 | 0.13 | 0.00 | 80 | 1012.3 |
| 20260509164528 | 27 | 0 | 0.0 | 6.4 | 0.00 | 0.15 | 0.00 | 80 | 1012.2 |
| 20260509163040 | 27 | 0 | 0.0 | 6.4 | 0.00 | 0.15 | 0.00 | 81 | 1012.2 |
| 20260509161530 | 26 | 0 | 0.0 | 3.2 | 0.00 | 0.15 | 0.00 | 81 | 1012.2 |
| 20260509160030 | 26 | 161 | 0.0 | 4.8 | 0.00 | 0.15 | 0.00 | 82 | 1012.1 |
| 20260509154529 | 26 | 0 | 1.6 | 4.8 | 0.00 | 0.15 | 0.00 | 83 | 1012.0 |
| 20260509153030 | 26 | 0 | 0.0 | 4.8 | 0.00 | 0.15 | 0.00 | 85 | 1012.0 |
| 20260509151530 | 25 | 0 | 0.0 | 1.6 | 0.00 | 0.15 | 0.00 | 87 | 1012.3 |
| 20260509150029 | 25 | 198 | 0.0 | 3.2 | 0.00 | 0.15 | 0.00 | 89 | 1012.3 |
| 20260509144528 | 24 | 0 | 0.0 | 3.2 | 0.00 | 0.15 | 0.00 | 90 | 1012.0 |
| 20260509143030 | 24 | 0 | 0.0 | 3.2 | 0.00 | 0.15 | 0.00 | 90 | 1011.8 |
| 20260509141530 | 24 | 0 | 0.0 | 6.4 | 0.00 | 0.15 | 0.00 | 92 | 1011.3 |
| 20260509140030 | 24 | 161 | 0.0 | 3.2 | 0.00 | 0.15 | 0.00 | 92 | 1011.3 |
| 20260509134528 | 24 | 173 | 0.0 | 6.4 | 0.00 | 0.15 | 0.00 | 93 | 1011.5 |
| 20260509133029 | 23 | 178 | 1.6 | 6.4 | 0.00 | 0.15 | 0.00 | 93 | 1012.2 |
| 20260509131533 | 23 | 180 | 0.0 | 3.2 | 0.00 | 0.15 | 0.00 | 94 | 1012.2 |
| 20260509130030 | 23 | 0 | 0.0 | 4.8 | 0.00 | 0.15 | 0.00 | 94 | 1012.3 |
| 20260509124527 | 23 | 0 | 0.0 | 1.6 | 0.00 | 0.15 | 0.00 | 94 | 1012.0 |
| 20260509123028 | 22 | 0 | 0.0 | 1.6 | 0.00 | 0.15 | 0.00 | 94 | 1012.0 |
| 20260509121537 | 22 | 0 | 0.0 | 1.6 | 0.00 | 0.15 | 0.00 | 94 | 1012.0 |
| 20260509120033 | 22 | 0 | 0.0 | 3.2 | 0.00 | 0.15 | 0.00 | 93 | 1011.6 |
| 20260509114531 | 22 | 0 | 0.0 | 1.6 | 0.00 | 0.15 | 0.00 | 93 | 1011.7 |
| 20260509113030 | 23 | 0 | 0.0 | 1.6 | 0.00 | 0.15 | 0.00 | 93 | 1012.3 |
| 20260509111530 | 22 | 0 | 0.0 | 1.6 | 0.00 | 0.15 | 0.00 | 93 | 1011.8 |
| 20260509110028 | 23 | 0 | 0.0 | 3.2 | 0.00 | 0.15 | 0.00 | 93 | 1011.7 |
| 20260509104534 | 22 | 0 | 0.0 | 1.6 | 0.00 | 0.15 | 0.00 | 93 | 1011.2 |
| 20260509103029 | 23 | 0 | 0.0 | 1.6 | 0.00 | 0.15 | 0.00 | 93 | 1011.4 |
| 20260509101532 | 23 | 0 | 0.0 | 1.6 | 0.00 | 0.15 | 0.00 | 93 | 1011.5 |
| 20260509100029 | 23 | 0 | 0.0 | 1.6 | 0.00 | 0.15 | 0.00 | 93 | 1011.4 |
| 20260509094528 | 23 | 0 | 0.0 | 1.6 | 0.00 | 0.15 | 0.00 | 93 | 1011.3 |
| 20260509093028 | 23 | 0 | 0.0 | 3.2 | 0.00 | 0.15 | 0.00 | 92 | 1011.5 |
| 20260509091535 | 23 | 0 | 0.0 | 1.6 | 0.00 | 0.15 | 0.00 | 93 | 1011.4 |
| 20260509090030 | 23 | 0 | 0.0 | 1.6 | 0.00 | 0.15 | 0.00 | 92 | 1011.4 |
| 20260509084536 | 23 | 0 | 0.0 | 3.2 | 0.00 | 0.15 | 0.00 | 93 | 1011.3 |
| 20260509083030 | 23 | 0 | 1.6 | 9.7 | 0.00 | 0.15 | 0.00 | 93 | 1011.1 |
| 20260509081530 | 23 | 0 | 0.0 | 1.6 | 0.00 | 0.15 | 0.00 | 92 | 1011.6 |
| 20260509080040 | 23 | 123 | 0.0 | 6.4 | 0.00 | 0.15 | 0.00 | 92 | 1011.4 |
| 20260509074530 | 23 | 0 | 0.0 | 3.2 | 0.00 | 0.15 | 0.00 | 92 | 1011.4 |
| 20260509073049 | 23 | 0 | 0.0 | 4.8 | 0.00 | 0.15 | 0.00 | 92 | 1011.7 |
| 20260509071528 | 23 | 0 | 0.0 | 6.4 | 0.00 | 0.15 | 0.00 | 92 | 1011.8 |
| 20260509070030 | 23 | 0 | 1.6 | 8.0 | 0.00 | 0.15 | 0.00 | 92 | 1011.9 |
| 20260509064530 | 23 | 0 | 0.0 | 1.6 | 0.00 | 0.15 | 0.00 | 92 | 1011.8 |
| 20260509063033 | 23 | 0 | 0.0 | 4.8 | 0.00 | 0.15 | 0.00 | 91 | 1011.8 |
| 20260509061530 | 23 | 0 | 0.0 | 4.8 | 0.00 | 0.15 | 0.00 | 92 | 1011.9 |
| 20260509060030 | 23 | 0 | 0.0 | 1.6 | 0.00 | 0.15 | 0.00 | 92 | 1012.0 |
| 20260509054535 | 23 | 0 | 0.0 | 1.6 | 0.00 | 0.15 | 0.00 | 91 | 1012.2 |
| 20260509053031 | 23 | 0 | 0.0 | 1.6 | 0.00 | 0.15 | 0.00 | 91 | 1012.2 |